USA 149 (DSP 20)

Last updated on Thu Oct 30 2025 00:02:47 GMT+0000 (Coordinated Universal Time)

1 26356U 00024A 25302.36699049 .00000107 00000+0 00000+0 0 9992 2 26356 12.9955 13.4552 0001033 219.8431 131.4300 1.00270618 30594
UTC large
Height (km)
Speed (km/s)
/
Latitude / Longitude
Inclination (degrees)
Orbital Period (minutes)
Azimuth
Elevation
Range (km)
Doppler Factor

Next 0 passes for location: London (51.5072 / 0.1276)

Sorry there are no passes over London.